H-2A R/B, 43067

Orbit data source: Space-Track

H-2A R/B, 43067 is space debris in LEO originally from a launch on Sat, 23 Dec 2017 UTC launched from the Tanegashima Space Center (TNSTA). Debris objects in space refer to the collection of defunct objects orbiting the Earth. Examples of debris include non-operational satellites, rocket bodies, and fragments generated from explosions, collisions, or faulty payload assembly.

Loading next visibility...
H-2A R/B details
Identifier
43067, 2017-082C
Orbit
LEO
Last TLE update22 hours ago
Origin
Flag of JPMHI (JP / JPN)
ManufacturerMHI Tobishima
MissionSpacecraft
Bus & MotorH-2A STAGE 2, Unknown motor
Mass4,000 kg wet, 4,000 kg dry
Launch date (UTC)
2017-12-23 (7 years ago)
Launch vehicleUnknown
Launch site
Tanegashima Space Center (TNSTA)
Object type
Payload
Rocket body
Debris
Shape & HBRCyl, 9.2 m
Radar Cross Section35.186 m², Large (>1 m²)

Expand to show TLE details & history

TLE from 22 hours ago
0 H-2A R/B
1 43067U 17082C   24347.46660158  .00046657  00000-0  79286-3 0  9997
2 43067  98.3376 325.9101 0054890 159.1523 201.1982 15.49587061384847
Epoch: 2024-12-12T11:11Z
Definitive object data (Epoch: 2024-12-12T11:11:54.376Z)
Latitude0.00002°
Longitude76.28701°
Altitude455.849 km
Speed7.619 km/s
True Right ascension21h 43m 38s
True Declination0° 00' 00"
Sunlit
Object was in daylight at TLE epoch
Visualization TLE readout
Latitude79.19438°
Longitude27.56786°
Altitude419.784 km
Speed7.673 km/s
Apparent Right ascension19h 29m 18s
Apparent Declination22° 53' 33"
Sunlit
Object is in daylight
Visualization observer readout
Local Sidereal Time07:44:56
Azimuth4.043° NNE
Elevation-27.086°
Doppler factor1
Orbital elements
Apogee altitude452.189 km
Perigee altitude377.615 km
Semi-major axis6,793.039 km
Eccentricity0.005489
Inclination98.3376°
RAAN325.9101°
Arg. of periapsis159.1523°
True anomaly200.97221°
Mean anomaly201.1982°
Eccentric anomaly201.08506°
Mean motion3.87656 °/min
BSTAR0.00079286
Orbital period92.87 mins
Loading maneuver chart data...
Loading historical data...
Loading historical data...
Loading historical data...
Loading historical data...
Loading historical data...
Loading historical data...
Loading historical data...
Other satellites on launch #82 in the year 2017 (2017-12-23 UTC)

H-2A R/B Visibility forecast

Observer location: undefined°, undefined

Span
Click to sort rows by Start time (UTC) header in descending order
Start Az.
Max El. time (UTC)
Max El. Az.
Max El.
End time (UTC)
End Az.
4 mins2024-12-13 22:59:12.132Z184.278° SSW2024-12-13 23:01:12.132Z288.164° WNW40.156°2024-12-13 23:03:12.132Z335.993° NNW
|